Regional Weather Roundup
Issued by NWS

Home | Current Version | Previous Version | Graphics & Text | Print | Product List | Glossary On
Versions: 1 2 3 4 5 6 7 8 9 10 11 12 13 14 15 16 17 18 19 20 21 22 23 24 25 26 27 28 29 30 31 32 33 34 35 36 37 38 39 40 41 42 43 44 45 46 47 48 49 50
000
ASUS43 KOAX 271602
RWRNE

WEATHER ROUNDUP FOR NEBRASKA
NATIONAL WEATHER SERVICE OMAHA NE
1100 AM CDT FRI MAR 27 2015

NOTES: SATELLITE DATA IS BEING USED TO AUGMENT CLOUD COVER ABOVE
       12000 FEET.
       "FAIR" INDICATES FEW OR NO CLOUDS BELOW 12,000 FEET WITH NO
       SIGNIFICANT WEATHER AND/OR OBSTRUCTIONS TO VISIBILITY.

  * THESE STATIONS DO NOT REPORT WEATHER SUCH AS RAIN...SNOW OR FOG.

NEZ001>004-019>022-054>056-271700-
NEBRASKA PANHANDLE

CITY           SKY/WX    TMP DP  RH WIND       PRES   REMARKS
SCOTTSBLUFF    CLOUDY    45  38  76 W10       30.12F
ALLIANCE       CLOUDY    51  39  63 W22       30.08F
CHADRON        CLOUDY    50  40  68 NW12      30.07S
KIMBALL        PTSUNNY   54  33  46 NW16G22   30.12F
SIDNEY         PTSUNNY   46  35  65 SW15      30.13F
$$

NEZ057>060-069>072-079>082-271700-
SOUTHWEST NEBRASKA

CITY           SKY/WX    TMP DP  RH WIND       PRES   REMARKS
NORTH PLATTE   CLOUDY    35  31  85 S10       30.18F WCI  27
IMPERIAL         N/A     41  35  79 SW13      30.17F
MCCOOK         CLOUDY    36  30  79 S9        30.22F WCI  29
$$

NEZ005>010-023>029-035>040-094-271700-
NORTH CENTRAL NEBRASKA

CITY           SKY/WX    TMP DP  RH WIND       PRES   REMARKS
VALENTINE      CLOUDY    37  29  72 S15       30.08F WCI  28
AINSWORTH      CLOUDY    36  28  74 S15       30.12F WCI  26
BROKEN BOW     CLOUDY    35  24  64 S13       30.19F WCI  26
ORD            CLOUDY    33  23  66 S8        30.21F WCI  26
$$

NEZ041-046>049-061>064-073>077-083>087-271700-
SOUTH CENTRAL NEBRASKA

CITY           SKY/WX    TMP DP  RH WIND       PRES   REMARKS
GRAND ISLAND   CLOUDY    34  20  56 VRB5      30.26F WCI  30
HASTINGS       CLOUDY    33  23  66 S6        30.25S WCI  28
HEBRON         SUNNY     34  20  57 E5        30.29S WCI  30
KEARNEY *      CLOUDY    34  25  69 SE5       30.25R WCI  30
$$

NEZ011>018-030>034-042>045-271700-
NORTHEAST NEBRASKA

CITY           SKY/WX    TMP DP  RH WIND       PRES   REMARKS
NORFOLK        MOSUNNY   29  17  61 CALM      30.25F
ALBION         CLOUDY    31  20  64 S5        30.25S WCI  26
BLAIR          SUNNY     31  17  54 N5        30.28S WCI  26
COLUMBUS *     SUNNY     32  16  51 NE3       30.29F
TEKAMAH        SUNNY     32  15  49 W10G25    30.30S WCI  24
WAYNE          MOSUNNY   29  16  58 CALM      30.27F
$$

NEZ050>053-065>068-078-088>093-271700-
SOUTHEAST NEBRASKA

CITY           SKY/WX    TMP DP  RH WIND       PRES   REMARKS
LINCOLN        SUNNY     33  21  61 CALM      30.31S
OMAHA EPPLEY   PTSUNNY   33  19  56 CALM      30.30S
FALLS CITY     MOSUNNY   33  20  58 NE8       30.30S WCI  26
NEBRASKA CITY  SUNNY     32  17  53 N3        30.30R
PLATTSMOUTH    SUNNY     31  14  49 N3        30.30R
$$

NEZ044-045-051>053-067-271700-
OMAHA AREA

CITY           SKY/WX    TMP DP  RH WIND       PRES   REMARKS
OMAHA EPPLEY   PTSUNNY   33  19  56 CALM      30.30S
BLAIR          SUNNY     31  17  54 N5        30.28S WCI  26
OFFUTT AFB     SUNNY     33  17  53 VRB1      30.29S
PLATTSMOUTH    SUNNY     31  14  49 N3        30.30R
$$



USA.gov is the U.S. government's official web portal to all federal, state and local government web resources and services.